Weather History for St. Louis, MO

Change the Weather History Date:

Sunday, March 24, 2013

  Actual Average Record
Temperature  
Mean Temperature 3 °C 9 °C  
Max Temperature 5 °C 15 °C 33 °C (1929)
Min Temperature 0 °C 4 °C -16 °C (1974)
Degree Days  
Heating Degree Days 28 16  
Month to date heating degree days 607 484  
Since 1 July heating degree days 3924 4082  
Cooling Degree Days 0 0  
Month to date cooling degree days 0 0  
Year to date cooling degree days 0 0  
Moisture  
Dew Point -1 °C    
Average Humidity 83    
Maximum Humidity 92    
Minimum Humidity 73    
Precipitation  
Precipitation 31.75 mm 3.05 mm 9.12 mm (1913)
Month to date precipitation 4.77 2.45  
Year to date precipitation 11.16 7.09  
Snow  
Snow 31.50 cm 0.00 cm 31.50 cm (2013)
Month to date snowfall 13.9 2.0  
Since 1 July snowfall 27.5 17.0  
Snow Depth T cm    
Sea Level Pressure  
Sea Level Pressure 1005 hPa    
Wind  
Wind Speed 25 km/h (North)    
Max Wind Speed 37 km/h    
Max Gust Speed 50 km/h    
Visibility 2 kilometers    
Events Fog , Rain , Snow , Thunderstorm    
T = Trace of Precipitation, MM = Missing Value Source: NWS Daily Summary

Daily Weather History Graph

Daily Weather History Graph

Search for Another Location

Airport:

Trip Planner

Search our weather history database for the weather conditions in past years. The results will help you decide how hot, cold, wet, or windy it might be!

Date:

Astronomy

Mar. 24, 2013 Rise Set
Actual Time 6:58 AM CDT 7:17 PM CDT
Civil Twilight 6:31 AM CDT 7:44 PM CDT
Nautical Twilight 6:00 AM CDT 8:15 PM CDT
Astronomical Twilight 5:28 AM CDT 8:47 PM CDT
Moon 4:47 PM CDT (3/24) 5:07 AM CDT (3/24)
Length of Visible Light 13h 12m
Length of Day
12h 19m
Waxing Gibbous, 92% of the Moon is Illuminated
Mar 24
Waxing Gibbous
Mar 27
Full
Apr 2
Last Quarter
Apr 10
New
Apr 18
First Quarter

Hourly Weather History & Observations

Time (CDT) Temp. Windchill Dew Point Humidity Pressure Visibility Wind Dir Wind Speed Gust Speed Precip Events Conditions
12:27 AM 6.0 °C 2.5 °C 1.0 °C 70% 1010.7 hPa 12.9 km NNE 18.5 km/h / 5.1 m/s - 0.5 mm Rain Light Rain
12:51 AM 5.0 °C 1.3 °C 0.6 °C 73% 1011.5 hPa 9.7 km NE 18.5 km/h / 5.1 m/s - 1.3 mm Rain Light Rain
1:49 AM 4.0 °C -0.6 °C 1.0 °C 81% 1011.4 hPa 6.4 km NE 24.1 km/h / 6.7 m/s 33.3 km/h / 9.3 m/s 0.3 mm Rain Light Rain
1:51 AM 3.9 °C 0.2 °C 0.6 °C 79% 1012.0 hPa 6.4 km NNE 16.7 km/h / 4.6 m/s 33.3 km/h / 9.3 m/s 0.3 mm Rain Light Rain
2:09 AM 3.0 °C -1.7 °C 1.0 °C 87% 1010.7 hPa 4.8 km NNE 22.2 km/h / 6.2 m/s 37.0 km/h / 10.3 m/s 0.5 mm Rain Light Rain
2:51 AM 1.7 °C -3.6 °C 0.0 °C 89% 1009.5 hPa 4.8 km NE 24.1 km/h / 6.7 m/s 33.3 km/h / 9.3 m/s 1.3 mm Rain , Snow Light Rain
3:28 AM 2.0 °C -3.2 °C -1.0 °C 81% 1008.7 hPa 6.4 km NE 24.1 km/h / 6.7 m/s 38.9 km/h / 10.8 m/s 0.0 mm Rain , Snow Light Rain
3:51 AM 1.7 °C -3.4 °C -0.6 °C 85% 1009.8 hPa 9.7 km NE 22.2 km/h / 6.2 m/s 31.5 km/h / 8.7 m/s 0.0 mm Snow Light Drizzle
4:20 AM 2.0 °C -3.6 °C -1.0 °C 81% 1008.4 hPa 6.4 km ENE 27.8 km/h / 7.7 m/s 37.0 km/h / 10.3 m/s 0.0 mm Rain Light Rain
4:51 AM 1.1 °C -5.2 °C -1.1 °C 85% 1007.6 hPa 6.4 km ENE 31.5 km/h / 8.7 m/s 40.7 km/h / 11.3 m/s 0.3 mm Rain Light Rain
5:51 AM 1.1 °C -4.1 °C -1.1 °C 85% 1006.9 hPa 8.0 km ENE 22.2 km/h / 6.2 m/s - 0.0 mm Rain Light Rain
6:15 AM 1.0 °C -4.0 °C -1.0 °C 87% 1006.3 hPa 4.8 km NE 20.4 km/h / 5.7 m/s - 0.0 mm Snow Light Snow
6:51 AM 0.6 °C -4.8 °C -1.1 °C 89% 1005.6 hPa 4.8 km ENE 22.2 km/h / 6.2 m/s 35.2 km/h / 9.8 m/s 0.3 mm Snow Light Snow
7:51 AM 1.1 °C -4.4 °C -1.1 °C 85% 1003.4 hPa 4.8 km ENE 24.1 km/h / 6.7 m/s - 0.0 mm Snow Light Snow
7:58 AM 1.0 °C -4.0 °C -1.0 °C 87% 1002.9 hPa 4.8 km ENE 20.4 km/h / 5.7 m/s 35.2 km/h / 9.8 m/s 0.0 mm Snow Light Snow
8:06 AM 1.0 °C -4.5 °C -1.0 °C 87% 1002.9 hPa 3.2 km ENE 24.1 km/h / 6.7 m/s 33.3 km/h / 9.3 m/s 0.3 mm Snow Light Snow
8:29 AM 1.0 °C -3.7 °C -1.0 °C 87% 1002.9 hPa 4.8 km ENE 18.5 km/h / 5.1 m/s - 0.8 mm Snow Light Snow
8:44 AM 1.0 °C -4.3 °C -1.0 °C 87% 1001.9 hPa 3.2 km NE 22.2 km/h / 6.2 m/s - 1.0 mm Snow Light Snow
8:55 AM 1.0 °C -4.3 °C -1.0 °C 87% 1001.9 hPa 1.2 km NE 22.2 km/h / 6.2 m/s - 0.0 mm Snow Light Snow
9:17 AM 1.0 °C -3.7 °C -1.0 °C 87% 1003.6 hPa 0.4 km NW 18.5 km/h / 5.1 m/s - 1.5 mm Fog , Snow Heavy Snow
9:21 AM 1.0 °C -4.5 °C -1.0 °C 87% 1003.6 hPa 0.4 km NW 24.1 km/h / 6.7 m/s - 2.0 mm Fog , Snow Heavy Snow
9:25 AM 1.0 °C -4.5 °C -1.0 °C 87% 1003.9 hPa 0.4 km NW 24.1 km/h / 6.7 m/s - 2.3 mm Fog , Snow , Thunderstorm Heavy Thunderstorms and Snow
9:27 AM 1.0 °C -4.5 °C -1.0 °C 87% 1003.9 hPa 0.4 km NW 24.1 km/h / 6.7 m/s - 2.5 mm Fog , Snow , Thunderstorm Heavy Thunderstorms and Snow
9:32 AM 1.0 °C -4.5 °C -1.0 °C 87% 1003.9 hPa 0.2 km NW 24.1 km/h / 6.7 m/s - 3.0 mm Fog , Snow , Thunderstorm Heavy Thunderstorms and Snow
9:48 AM 1.0 °C -4.5 °C -1.0 °C 87% 1003.6 hPa 0.4 km NNW 24.1 km/h / 6.7 m/s - 6.3 mm Fog , Snow Heavy Snow
9:51 AM 0.6 °C -5.4 °C -1.1 °C 89% 1003.6 hPa 0.4 km North 27.8 km/h / 7.7 m/s 38.9 km/h / 10.8 m/s 6.6 mm Fog , Snow Heavy Snow
10:23 AM 1.0 °C -4.9 °C -1.0 °C 87% 1002.9 hPa 0.4 km North 27.8 km/h / 7.7 m/s - 1.5 mm Fog , Snow Heavy Snow
10:35 AM 1.0 °C -4.5 °C -1.0 °C 87% 1002.6 hPa 0.4 km North 24.1 km/h / 6.7 m/s - 2.0 mm Fog , Snow Heavy Snow
10:45 AM 1.0 °C -4.5 °C -1.0 °C 87% 1002.6 hPa 0.4 km North 24.1 km/h / 6.7 m/s - 2.5 mm Fog , Snow Heavy Snow
10:51 AM 0.6 °C -5.2 °C -1.1 °C 89% 1003.0 hPa 0.4 km North 25.9 km/h / 7.2 m/s - 2.8 mm Fog , Snow Heavy Snow
10:58 AM 1.0 °C -4.3 °C -1.0 °C 87% 1002.6 hPa 0.4 km North 22.2 km/h / 6.2 m/s - 0.5 mm Fog , Snow Heavy Snow
11:09 AM 1.0 °C -4.5 °C -1.0 °C 87% 1002.3 hPa 0.8 km North 24.1 km/h / 6.7 m/s 40.7 km/h / 11.3 m/s 0.8 mm Fog , Snow Snow
11:51 AM 0.0 °C -5.3 °C -1.7 °C 88% 1002.7 hPa 0.8 km North 20.4 km/h / 5.7 m/s - 2.0 mm Fog , Snow Snow
12:05 PM 0.0 °C -5.0 °C -2.0 °C 87% 1001.9 hPa 0.4 km North 18.5 km/h / 5.1 m/s 37.0 km/h / 10.3 m/s 0.5 mm Fog , Snow Heavy Snow
12:09 PM 0.0 °C -5.0 °C -1.0 °C 93% 1001.9 hPa 0.4 km North 18.5 km/h / 5.1 m/s 37.0 km/h / 10.3 m/s 0.8 mm Fog , Snow Heavy Snow
12:51 PM 0.0 °C -4.4 °C -1.1 °C 92% 1002.3 hPa 0.4 km North 14.8 km/h / 4.1 m/s - 4.6 mm Fog , Snow Heavy Snow
1:16 PM 0.0 °C -5.5 °C -2.0 °C 87% 1001.2 hPa 0.4 km North 22.2 km/h / 6.2 m/s - 0.8 mm Fog , Snow Heavy Snow
1:30 PM 0.0 °C -5.5 °C -2.0 °C 87% 1001.2 hPa 0.4 km North 22.2 km/h / 6.2 m/s - 1.0 mm Fog , Snow Heavy Snow
1:51 PM 0.0 °C -6.2 °C -1.7 °C 88% 1002.1 hPa 0.4 km North 27.8 km/h / 7.7 m/s - 1.0 mm Fog , Snow Heavy Snow
1:57 PM 0.0 °C -6.2 °C -2.0 °C 87% 1001.2 hPa 0.8 km NNW 27.8 km/h / 7.7 m/s 37.0 km/h / 10.3 m/s 0.3 mm Fog , Snow Snow
2:19 PM 1.0 °C -3.7 °C -2.0 °C 81% 1001.2 hPa 0.4 km NNW 18.5 km/h / 5.1 m/s 35.2 km/h / 9.8 m/s 0.5 mm Fog , Snow Heavy Snow
2:35 PM 1.0 °C -3.7 °C -1.0 °C 87% 1001.6 hPa 0.8 km NNW 18.5 km/h / 5.1 m/s - 1.3 mm Fog , Snow Snow
2:46 PM 1.0 °C -4.0 °C -1.0 °C 87% 1001.6 hPa 0.8 km NW 20.4 km/h / 5.7 m/s - 1.8 mm Fog , Snow Snow
2:51 PM 0.6 °C -4.5 °C -1.1 °C 89% 1002.6 hPa 0.8 km NNW 20.4 km/h / 5.7 m/s 31.5 km/h / 8.7 m/s 2.0 mm Fog , Snow Snow
3:05 PM 1.0 °C -4.3 °C -2.0 °C 81% 1001.9 hPa 0.8 km NNW 22.2 km/h / 6.2 m/s 33.3 km/h / 9.3 m/s 0.5 mm Fog , Snow Snow
3:45 PM 1.0 °C -4.5 °C -1.0 °C 87% 1002.3 hPa 0.4 km NW 24.1 km/h / 6.7 m/s - 1.8 mm Fog , Snow Heavy Snow
3:51 PM 0.0 °C -6.4 °C -1.1 °C 92% 1003.4 hPa 0.4 km NW 29.6 km/h / 8.2 m/s 38.9 km/h / 10.8 m/s 2.3 mm Fog , Snow Heavy Snow
3:59 PM 1.0 °C -5.3 °C -2.0 °C 81% 1002.6 hPa 0.4 km NW 31.5 km/h / 8.7 m/s - 0.3 mm Fog , Snow Heavy Snow
4:18 PM 1.0 °C -5.3 °C -2.0 °C 81% 1002.9 hPa 0.4 km NW 31.5 km/h / 8.7 m/s - 0.8 mm Fog , Snow Heavy Snow
4:26 PM 1.0 °C -4.3 °C -2.0 °C 81% 1002.9 hPa 0.8 km NW 22.2 km/h / 6.2 m/s 40.7 km/h / 11.3 m/s 1.0 mm Fog , Snow Snow
4:51 PM 1.0 °C -5.5 °C -1.0 °C 87% 1003.3 hPa 0.8 km NW 33.3 km/h / 9.3 m/s 40.7 km/h / 11.3 m/s N/A Fog , Snow Snow
5:01 PM 1.0 °C -4.9 °C -1.0 °C 87% 1003.6 hPa 0.4 km NW 27.8 km/h / 7.7 m/s 40.7 km/h / 11.3 m/s 0.3 mm Fog , Snow Heavy Snow
5:51 PM 0.0 °C -6.8 °C -1.7 °C 88% 1005.5 hPa 0.4 km NW 33.3 km/h / 9.3 m/s 48.2 km/h / 13.4 m/s 2.0 mm Fog , Snow Heavy Snow
6:51 PM 0.0 °C -6.6 °C -1.7 °C 88% 1006.7 hPa 0.8 km NW 31.5 km/h / 8.7 m/s 46.3 km/h / 12.9 m/s 2.3 mm Fog , Snow Snow
7:51 PM 0.0 °C -6.0 °C -1.7 °C 88% 1007.9 hPa 1.2 km NW 25.9 km/h / 7.2 m/s 37.0 km/h / 10.3 m/s 1.3 mm Snow Light Snow
8:51 PM 0.0 °C -5.8 °C -1.7 °C 88% 1008.6 hPa 1.2 km NW 24.1 km/h / 6.7 m/s 38.9 km/h / 10.8 m/s 1.3 mm Snow Light Snow
9:51 PM 0.0 °C -6.8 °C -1.7 °C 88% 1009.4 hPa 1.6 km NW 33.3 km/h / 9.3 m/s 46.3 km/h / 12.9 m/s 1.0 mm Snow Light Snow
10:51 PM 0.0 °C -6.0 °C -1.7 °C 88% 1010.1 hPa 1.6 km WNW 25.9 km/h / 7.2 m/s 38.9 km/h / 10.8 m/s 0.5 mm Snow Light Snow
11:08 PM 0.0 °C -6.4 °C -2.0 °C 87% 1009.4 hPa 1.2 km WNW 29.6 km/h / 8.2 m/s 44.4 km/h / 12.3 m/s 0.5 mm Snow Light Snow
11:33 PM 0.0 °C -5.8 °C -2.0 °C 87% 1009.4 hPa 1.6 km NW 24.1 km/h / 6.7 m/s - 0.8 mm Snow Light Snow
11:51 PM 0.0 °C -5.5 °C -1.7 °C 88% 1010.8 hPa 2.4 km NW 22.2 km/h / 6.2 m/s 35.2 km/h / 9.8 m/s 1.0 mm Snow Light Snow